Location: Godiavel Galaoual
(15.2485°N, 12.6604°W)
Time: 10:30:45
(UTC+00:00)

Vanguard 1 Rocket - All Passes

Search period start: 15 June 2021 00:00
Search period end: 25 June 2021 00:00
Orbit: 651 x 4225 km, 34.3° (Epoch: 14 June)

Date Brightness Start Highest point End Pass type
(mag) Time Alt. Az. Time Alt. Az. Time Alt. Az.
15 Jun - 01:09:27 10° WNW 01:21:58 39° N 01:43:08 10° ENE visible
15 Jun - 03:37:55 10° NW 03:57:51 56° NNE 04:23:30 10° E visible
15 Jun - 06:07:41 10° WNW 06:33:08 83° SW 06:55:53 10° SE daylight
15 Jun - 08:43:22 10° WNW 09:04:48 34° SW 09:20:38 10° SSE daylight
15 Jun - 19:09:23 10° S 19:12:45 17° SE 19:17:04 10° E daylight
15 Jun - 21:31:01 10° WSW 21:37:22 71° NNW 21:49:48 10° NE visible
15 Jun - 23:57:22 10° WNW 00:07:06 38° N 00:24:43 10° ENE visible
16 Jun - 02:25:19 10° NW 02:41:28 46° NNE 03:05:53 10° E visible
16 Jun - 04:53:53 10° NW 05:17:08 78° NNE 05:42:18 10° ESE visible
16 Jun - 07:25:52 10° WNW 07:50:32 52° SW 08:10:12 10° SSE daylight
16 Jun - 10:12:28 10° WSW 10:21:10 13° SW 10:28:31 10° SSW daylight
16 Jun - 20:20:42 10° SW 20:25:59 66° SE 20:35:24 10° ENE visible
16 Jun - 22:45:41 10° W 22:53:21 41° NNW 23:07:45 10° NE visible
17 Jun - 01:13:07 10° WNW 01:25:44 39° N 01:46:56 10° ENE visible
17 Jun - 03:40:55 10° NW 04:00:53 62° NNE 04:26:58 10° ESE visible
17 Jun - 06:10:33 10° WNW 06:35:25 72° SW 06:58:22 10° SE daylight
17 Jun - 08:47:57 10° W 09:07:07 27° SW 09:22:04 10° S daylight
17 Jun - 19:11:15 10° SSW 19:15:23 27° SE 19:21:12 10° E daylight
17 Jun - 21:34:27 10° W 21:40:40 53° NNW 21:52:24 10° NE visible
18 Jun - 00:01:11 10° WNW 00:10:53 35° N 00:28:02 10° ENE visible
18 Jun - 02:28:35 10° NW 02:44:52 50° NNE 03:09:44 10° E visible
18 Jun - 04:56:42 10° WNW 05:19:40 88° NE 05:45:06 10° SE visible
18 Jun - 07:29:21 10° WNW 07:52:43 43° SW 08:12:07 10° SSE daylight
18 Jun - 20:23:44 10° WSW 20:28:58 84° NNW 20:38:16 10° ENE visible
18 Jun - 22:49:30 10° WNW 22:57:02 35° N 23:10:35 10° NE visible
19 Jun - 01:16:38 10° NW 01:29:24 40° NNE 01:50:53 10° E visible
19 Jun - 03:43:51 10° NW 04:03:43 70° NNE 04:30:11 10° ESE visible
19 Jun - 06:13:35 10° WNW 06:37:39 61° SW 07:00:35 10° SE daylight
19 Jun - 08:53:35 10° W 09:09:43 21° SW 09:22:59 10° S daylight
19 Jun - 19:13:41 10° SSW 19:18:07 44° SE 19:24:42 10° ENE daylight
19 Jun - 21:38:05 10° W 21:44:08 40° NNW 21:55:01 10° NE visible
20 Jun - 00:04:56 10° NW 00:14:40 34° N 00:31:39 10° ENE visible
20 Jun - 02:31:41 10° NW 02:48:03 55° NNE 03:13:23 10° E visible
20 Jun - 04:59:36 10° WNW 05:22:04 81° SW 05:47:38 10° SE visible
20 Jun - 07:33:20 10° W 07:55:01 35° SW 08:13:46 10° SSE daylight
20 Jun - 18:04:53 10° S 18:07:36 16° SE 18:10:42 10° E daylight
20 Jun - 20:27:03 10° WSW 20:32:10 58° NNW 20:40:59 10° NE visible
20 Jun - 22:53:22 10° WNW 23:00:47 31° N 23:13:38 10° NE visible
21 Jun - 01:19:59 10° NW 01:32:53 43° NNE 01:54:49 10° E visible
21 Jun - 03:46:45 10° NW 04:06:22 80° NNE 04:33:06 10° ESE visible
21 Jun - 06:16:53 10° WNW 06:39:55 51° SW 07:02:34 10° SSE daylight
21 Jun - 09:00:56 10° WSW 09:12:41 15° SW 09:22:56 10° SSW daylight
21 Jun - 19:16:31 10° SW 19:21:02 73° SE 19:27:51 10° ENE daylight
21 Jun - 21:41:54 10° WNW 21:47:45 32° N 21:57:42 10° NE visible
22 Jun - 00:08:33 10° NW 00:18:22 34° NNE 00:35:29 10° ENE visible
22 Jun - 02:34:42 10° NW 02:51:00 62° NNE 03:16:47 10° ESE visible
22 Jun - 05:02:35 10° WNW 05:24:26 70° SW 05:49:55 10° SE visible
22 Jun - 07:37:59 10° W 07:57:34 28° SW 08:15:04 10° S daylight
22 Jun - 18:06:42 10° SSW 18:10:26 27° SE 18:14:53 10° E daylight
22 Jun - 20:30:36 10° W 20:35:32 40° NNW 20:43:37 10° NE visible
22 Jun - 22:57:13 10° NW 23:04:34 28° N 23:16:59 10° ENE visible
23 Jun - 01:23:11 10° NW 01:36:11 47° NNE 01:58:40 10° E visible
23 Jun - 03:49:40 10° WNW 04:08:55 90° SW 04:35:45 10° SE visible
23 Jun - 06:20:30 10° WNW 06:42:18 42° SW 07:04:18 10° SSE daylight
23 Jun - 09:13:54 10° SW 09:16:10 10° SW 09:18:21 10° SW daylight
23 Jun - 19:19:37 10° WSW 19:24:07 70° NNW 19:30:46 10° NE daylight
23 Jun - 21:45:50 10° WNW 21:51:27 26° N 22:00:31 10° NE visible
24 Jun - 00:11:59 10° NW 00:21:57 36° NNE 00:39:27 10° E visible
24 Jun - 02:37:39 10° NW 02:53:47 71° NNE 03:19:53 10° ESE visible
24 Jun - 05:05:45 10° WNW 05:26:50 59° SW 05:51:56 10° SE visible
24 Jun - 07:43:38 10° W 08:00:26 21° SW 08:15:54 10° S daylight
24 Jun - 18:09:09 10° SW 18:13:22 47° SE 18:18:24 10° ENE daylight
24 Jun - 20:34:23 10° WNW 20:39:02 29° NNW 20:46:15 10° NE visible
24 Jun - 23:00:56 10° NW 23:08:17 27° NNE 23:20:36 10° ENE visible
